Location: Neuvy Saint Sepulchre
(46.5953°N, 1.8122°E)
Time: 05:58:36
(UTC+02:00)

ISS - Pass Details

Date: 02 July 2021
Orbit: 417 x 422 km, 51.6° (Epoch: 16 June)

Event Time Altitude Azimuth Distance (km) Brightness Sun altitude
Exits shadow 03:30:53 22° 135° (SE) 983 -2.1 -17.2°
Drops below altitude 10° 03:33:25 10° 86° (E) 1,501 -0.6 -17.0°
Sets 03:35:49 0° 71° (ENE) 2,368 0.7 -16.9°
